#timestamp,LO_Frequency,Hit,StdDev 
1544446815.8,286047007.5,N
1544446835.7,286047004.8,N
1544446855.5,286047002.9,N
1544446875.3,286047004.7,N
1544446895.2,286047009.1,N
1544446915.0,286047007.1,N
1544446915.9,286047007.1,N
1544446935.8,286047004.8,N
1544446955.6,286047005.4,N
1544446975.4,286047007.0,N
1544446995.3,286047010.8,N
1544447015.1,286047006.4,N
1544447035.8,286047005.8,N
1544447055.7,286047004.6,N
1544447075.5,286047005.6,N
1544447095.4,286047003.2,N
1544447115.2,286047005.8,N
1544447135.0,286047005.3,N
1544447135.9,286047005.3,N
1544447155.8,286047001.7,N
1544447175.6,286046998.3,N
1544447195.5,286046998.8,N
1544447215.3,286046997.1,N
1544447235.1,286047000.0,N
1544447255.9,286046998.1,N
1544447275.7,286047001.2,N
1544447295.5,286047000.4,N
1544447315.4,286047003.9,N
1544447335.2,286047006.6,N
1544447355.1,286047008.9,N
1544447356.0,286047008.9,N
1544447375.8,286047013.1,Y
1544447395.6,286047014.0,P
1544447415.5,286047013.3,N
1544447435.3,286047016.6,P
1544447455.2,286047017.4,Y
1544447475.9,286047005.5,P
1544447495.7,286047001.0,N
1544447515.6,286046998.1,N
1544447535.4,286046999.7,N
1544447555.2,286047000.4,N
1544447575.1,286047002.1,N
1544447576.0,286047002.1,N
1544447595.8,286046998.7,N
1544447615.7,286046993.5,N
1544447635.5,286046989.2,N
1544447655.3,286046984.8,N
1544447675.2,286046979.4,Y
1544447695.0,286046980.8,P
1544447695.9,286046980.8,N
1544447715.8,286046979.3,N
1544447735.6,286046976.0,N
1544447755.4,286046972.6,Y
1544447775.3,286046988.5,P
1544447795.1,286046990.3,P
1544447815.8,286046991.6,N
1544447835.7,286046985.8,Y
1544447855.5,286046998.0,P
1544447875.4,286046999.9,N
1544447895.2,286047001.5,N
1544447915.0,286047004.5,N
1544447915.9,286047004.5,N
1544447935.8,286047005.4,N
1544447955.6,286047006.4,N
1544447975.4,286047008.9,N
1544447995.3,286047005.4,N
1544448015.1,286047001.5,N
1544448035.9,286047000.7,N
1544448055.7,286046998.9,N
1544448075.5,286046996.8,N
1544448095.4,286046998.2,N
1544448115.2,286047002.4,N
1544448135.0,286047001.9,N
1544448135.9,286047001.9,N
1544448155.8,286047001.9,N
1544448175.6,286047003.2,N
1544448195.5,286047000.4,N
1544448215.3,286046997.5,N
1544448235.1,286046995.4,N
1544448255.9,286046999.3,N
1544448275.7,286046999.1,N
1544448295.5,286046999.5,N
1544448315.4,286047003.8,N
1544448335.2,286047004.0,N
1544448355.0,286047006.7,N
1544448356.0,286047006.7,N
1544448375.8,286047013.2,Y
1544448395.6,286047015.0,P
1544448415.5,286047013.8,N
1544448435.3,286047011.6,N
1544448455.1,286047010.1,N
1544448475.9,286047012.4,N
1544448495.7,286047011.0,N
1544448515.6,286047015.6,Y
1544448535.4,286047007.4,P
1544448555.2,286047007.8,P
1544448575.1,286047013.9,P
1544448576.0,286047013.9,Y
1544448595.8,286047007.2,P
1544448615.6,286047007.9,P
1544448635.5,286047006.1,P
1544448655.3,286047005.0,Y
1544448675.2,286046995.2,P
1544448695.9,286046993.7,N
1544448715.7,286046997.8,N
1544448735.6,286046999.9,N
1544448755.4,286047004.3,N
1544448775.2,286047002.3,N
1544448795.1,286047003.7,N
1544448796.0,286047003.7,N
1544448815.8,286046999.8,N
1544448835.7,286047002.6,N
1544448855.5,286046998.7,N
1544448875.3,286047000.8,N
1544448895.2,286046999.0,N
1544448915.0,286046996.7,N
1544448915.9,286046996.7,N
1544448935.7,286046995.5,N
1544448955.6,286046994.4,N
1544448975.4,286046998.0,N
1544448995.3,286046998.7,N
1544449015.1,286046999.9,N
1544449016.0,286046999.9,N
1544449035.8,286047001.0,N
1544449055.7,286047002.2,N
1544449075.5,286047004.9,N
1544449095.3,286047005.8,N
1544449115.2,286047002.7,N
1544449135.0,286046997.2,N
1544449135.9,286046997.2,N
1544449155.8,286046998.0,N
1544449175.6,286046997.1,N
1544449195.4,286046996.1,N
1544449215.3,286046993.4,N
1544449235.1,286046993.8,N
1544449255.8,286046992.5,N
1544449275.7,286046989.1,Y
1544449295.5,286046986.3,P
1544449315.4,286046986.1,N
1544449335.2,286046986.9,N
1544449355.0,286046991.6,N
1544449355.9,286046991.6,N
1544449375.8,286046994.3,N
1544449395.6,286046996.3,N
1544449415.4,286046993.8,N
1544449435.3,286046998.8,N
1544449455.1,286046998.6,N
1544449475.9,286046998.5,N
1544449495.7,286046999.9,N
1544449515.5,286047000.9,N
1544449535.4,286047000.6,N
1544449555.2,286047004.9,N
1544449575.0,286047007.8,N
1544449575.9,286047007.8,N
1544449595.8,286047011.2,N
1544449615.6,286047009.0,N
1544449635.4,286047007.2,N
1544449655.3,286047004.8,N
1544449675.1,286047010.8,N
1544449695.9,286047013.6,N
1544449715.7,286047014.3,N
1544449735.5,286047015.7,N
1544449755.4,286047016.6,N
1544449775.2,286047013.1,N
1544449795.0,286047012.9,N
1544449795.9,286047012.9,N
1544449815.8,286047015.3,N
1544449835.6,286047011.1,N
1544449855.5,286047009.9,N
1544449875.3,286047009.6,N
1544449895.1,286047012.5,N
1544449915.9,286047013.0,N
1544449935.7,286047016.0,N
1544449955.5,286047014.9,N
1544449975.4,286047012.5,N
1544449995.2,286047017.2,Y
1544450015.1,286047003.0,P
1544450016.0,286047003.0,N
1544450035.8,286047010.4,P
1544450055.6,286047010.1,N
1544450075.5,286047012.0,Y
1544450095.3,286047006.0,P
1544450115.1,286047004.7,P
1544450135.9,286047002.1,N
1544450155.7,286046997.0,N
1544450175.6,286046997.6,N
1544450195.4,286046995.8,N
1544450215.2,286046992.7,N
1544450235.1,286046987.3,N
1544450236.0,286046987.3,N
1544450255.8,286046983.4,N
1544450275.6,286046977.6,N
1544450295.5,286046975.3,N
1544450315.3,286046970.5,N
1544450335.1,286046971.5,N
1544450355.9,286046971.0,N
1544450375.7,286046971.5,N
1544450395.6,286046969.6,N
